Terug naar catalogus

FENGYUN 1C DEB

ActiefSSO
NORAD 30152·DEBRIS·🇨🇳 China

Gelanceerd May 10, 1999 vanaf Taiyuan Satellite Launch Center

Loading…

Volgende Passages (komende 24 uur)

TLE

VersSource: Space-Track

Epoch: Sep 14, 2026, 00:50 UTC

1 30152U 99025TH  26257.03484591  .00002145  00000-0  13696-2 0  9991
2 30152  99.0785 116.7581 0164848  49.4710 312.0679 13.98127415992230

Volg FENGYUN 1C DEB in realtime met AllMySat

Download on the App Store